Weather History for Tampa Macdill AFB, FL

Change the Weather History Date:

Tuesday, August 20, 2013

  Actual Average Record
Temperature  
Mean Temperature 82 °F -  
Max Temperature 93 °F 88 °F 95 °F (2007)
Min Temperature 73 °F 73 °F 73 °F (1996)
Cooling Degree Days 17    
Growing Degree Days 32 (Base 50)    
Moisture  
Dew Point 77 °F    
Average Humidity 88    
Maximum Humidity 100    
Minimum Humidity 63    
Precipitation  
Precipitation 0.27 in - - ()
Sea Level Pressure  
Sea Level Pressure 30.05 in    
Wind  
Wind Speed 8 mph (East)    
Max Wind Speed 17 mph    
Max Gust Speed 36 mph    
Visibility 9 miles    
Events Fog , Rain , Thunderstorm    
Averages and records for this station are not official NWS values.
T = Trace of Precipitation, MM = Missing Value Source: NWS Daily Summary

Daily Weather History Graph

Daily Weather History Graph

Search for Another Location

Airport:

Trip Planner

Search our weather history database for the weather conditions in past years. The results will help you decide how hot, cold, wet, or windy it might be!

Date:

Astronomy

Aug. 20, 2013 Rise Set
Actual Time 7:03 AM EDT 8:03 PM EDT
Civil Twilight 6:38 AM EDT 8:27 PM EDT
Nautical Twilight 6:10 AM EDT 8:56 PM EDT
Astronomical Twilight 5:40 AM EDT 9:25 PM EDT
Moon 7:39 PM EDT (8/20) 6:29 AM EDT (8/20)
Length of Visible Light 13h 48m
Length of Day
13h 00m
Full, 100% of the Moon is Illuminated
Aug 20
Full
Aug 20
Full
Aug 28
Last Quarter
Sep 5
New
Sep 12
First Quarter

Hourly Weather History & Observations

Time (EDT) Temp. Heat Index Dew Point Humidity Pressure Visibility Wind Dir Wind Speed Gust Speed Precip Events Conditions
12:58 AM 73.6 °F - 73.6 °F 100% 30.05 in 10.0 mi NNE 4.6 mph - N/A   Clear
1:58 AM 73.8 °F - 73.8 °F 100% 30.03 in 10.0 mi NE 5.8 mph - N/A   Clear
2:58 AM 73.9 °F - 73.9 °F 100% 30.02 in 10.0 mi ENE 9.2 mph - N/A   Clear
3:58 AM 75.2 °F - 75.2 °F 100% 30.02 in 10.0 mi ENE 10.4 mph - N/A   Clear
4:58 AM 75.7 °F - 75.7 °F 100% 30.01 in 10.0 mi ENE 10.4 mph - N/A   Clear
5:58 AM 75.6 °F - 75.6 °F 100% 30.02 in 10.0 mi East 5.8 mph - N/A   Clear
6:58 AM 75.7 °F - 75.7 °F 100% 30.03 in 10.0 mi East 8.1 mph - N/A   Clear
7:58 AM 77.2 °F - 76.6 °F 98% 30.04 in 10.0 mi East 5.8 mph - N/A   Clear
8:58 AM 81.0 °F 88.6 °F 78.3 °F 91% 30.06 in 10.0 mi SE 6.9 mph - N/A   Clear
9:58 AM 84.2 °F 96.1 °F 78.8 °F 84% 0.02 in 10.0 mi SSE 10.4 mph - N/A   Clear
10:56 AM 86.0 °F 99.3 °F 78.8 °F 79% 30.07 in 10.0 mi SE 8.1 mph - N/A   Clear
11:09 AM 86.0 °F 99.3 °F 78.8 °F 79% 30.08 in 10.0 mi SE 8.1 mph - N/A   Mostly Cloudy
11:25 AM 87.8 °F 102.5 °F 78.8 °F 75% 30.07 in 10.0 mi East 9.2 mph - N/A   Scattered Clouds
11:58 AM 87.1 °F 99.8 °F 77.9 °F 74% 30.09 in 10.0 mi Variable 4.6 mph - N/A   Clear
12:58 PM 89.2 °F 103.1 °F 77.7 °F 69% 30.08 in 10.0 mi ENE 5.8 mph - N/A   Clear
1:58 PM 91.8 °F 106.1 °F 77.4 °F 63% 30.06 in 10.0 mi East 9.2 mph - N/A   Clear
2:58 PM 91.8 °F 108.3 °F 79.0 °F 66% 30.04 in 10.0 mi Variable 6.9 mph - N/A   Clear
3:58 PM 91.9 °F 106.6 °F 77.9 °F 63% 30.01 in 10.0 mi ESE 9.2 mph - N/A   Clear
4:58 PM 90.9 °F 109.3 °F 80.2 °F 71% 30.01 in 10.0 mi SSW 13.8 mph - N/A   Clear
5:51 PM 89.6 °F 102.2 °F 77.0 °F 66% 30.01 in 10.0 mi SW 8.1 mph - N/A Thunderstorm Thunderstorm
5:58 PM 89.6 °F 104.1 °F 78.1 °F 69% 30.03 in 10.0 mi SE 17.3 mph 24.2 mph N/A Thunderstorm Thunderstorm
6:04 PM 87.8 °F 102.5 °F 78.8 °F 75% 30.03 in 3.0 mi ESE 16.1 mph 35.7 mph N/A Thunderstorm Unknown
6:05 PM 87.8 °F 102.5 °F 78.8 °F 75% 30.04 in 2.0 mi East 15.0 mph 35.7 mph N/A Rain , Thunderstorm Light Thunderstorms and Rain
6:10 PM 82.4 °F 92.4 °F 78.8 °F 89% 30.02 in 0.5 mi ESE 16.1 mph 35.7 mph N/A Fog , Rain , Thunderstorm Heavy Thunderstorms and Rain
6:15 PM 80.6 °F 87.1 °F 77.0 °F 89% 30.02 in 0.5 mi SE 10.4 mph 20.7 mph N/A Fog , Rain , Thunderstorm Heavy Thunderstorms and Rain
6:20 PM 78.8 °F - 77.0 °F 94% 30.03 in 1.2 mi Variable 4.6 mph - N/A Rain , Thunderstorm Thunderstorms and Rain
6:25 PM 77.0 °F - 75.2 °F 94% 30.04 in 4.0 mi Variable 2.3 mph - N/A Rain , Thunderstorm Light Thunderstorms and Rain
6:36 PM 77.0 °F - 73.4 °F 89% 30.03 in 10.0 mi SW 2.3 mph - N/A Rain , Thunderstorm Light Rain
6:51 PM 75.2 °F - 75.2 °F 100% 30.03 in 10.0 mi NW 2.3 mph - N/A   Partly Cloudy
6:58 PM 75.7 °F - 74.7 °F 96% 30.02 in 10.0 mi WSW 2.3 mph - 0.26 in   Clear
7:58 PM 76.5 °F - 76.1 °F 99% 30.05 in 10.0 mi North 5.8 mph - N/A   Clear
8:48 PM 77.0 °F - 77.0 °F 100% 30.08 in 10.0 mi NE 4.6 mph - N/A Rain Light Rain
8:58 PM 76.5 °F - 76.5 °F 100% 30.09 in 10.0 mi NNE 5.8 mph - 0.01 in Rain Light Rain
9:06 PM 75.2 °F - 75.2 °F 100% 30.07 in 10.0 mi NE 8.1 mph - N/A   Partly Cloudy
9:58 PM 75.2 °F - 75.2 °F 100% 30.09 in 10.0 mi North 2.3 mph - 0.00 in   Clear
10:58 PM 75.0 °F - 75.0 °F 100% 30.09 in 10.0 mi NE 8.1 mph - N/A   Clear
11:58 PM 75.9 °F - 75.9 °F 100% 30.09 in 10.0 mi NE 8.1 mph - N/A   Clear